Tracking 19638 objects as of 21-Apr-2019
HD Live streaming from Space Station
objects crossing your sky now

COSMOS 468

Track COSMOS 468 now!
10-day predictions
COSMOS 468 is classified as:


NORAD ID: 5705
Int'l Code: 1971-114A
Perigee: 768.6 km
Apogee: 791.3 km
Inclination: 74.0 °
Period: 100.3 minutes
Semi major axis: 7150 km
RCS: 2.6347 m2 (large)
Launch date: December 17, 1971
Source: Commonwealth of Independent States (former USSR) (CIS)
Launch site: PLESETSK MISSILE AND SPACE COMPLEX (PKMTR)
aabbcc
Your satellite tracking list
Your tracking list is empty




NASA's NSSDC Master Catalog

Two Line Element Set (TLE):
1  5705U 71114A   19110.88962836 +.00000024 +00000-0 +17400-4 0  9995
2  5705 074.0206 006.3007 0015895 317.0669 042.9242 14.35682911476026
Source of the keplerian elements: AFSPC